Oceanside, California, United States (92049)
Lat: 33.20N, Lon: 117.38W
Wx Zone: CAZ043
Local Info
Past Weather Observations for Today

NOTE: This archive is for the closest National Weather Service station to Oceanside. Information may differ from the station used for current weather conditions.

Time Weather Temperature Dewpoint Humidity Pressure Winds Precip Visibility
22:52
Clear
52°F / 11°C 48°F / 9°C 88% 29.95 in
(1014 mb)
Calm - 9SM
21:52
Partly Cloudy
54°F / 12°C 48°F / 9°C 82% 29.95 in
(1014 mb)
Calm - 10SM
21:50
Partly Cloudy
54°F / 12°C 48°F / 9°C 82% 29.95 in
(1014 mb)
Calm - 10SM
21:43
Mostly Cloudy
54°F / 12°C 48°F / 9°C 82% 29.95 in
(1014 mb)
Calm - 10SM
20:52
Clear
57°F / 14°C 52°F / 11°C 82% 29.95 in
(1014 mb)
Calm - 10SM
19:52
Clear
61°F / 16°C 52°F / 11°C 72% 29.95 in
(1014 mb)
SSW 4.6 mph
(SSW 7 kph)
- 10SM
19:34
Partly Cloudy
61°F / 16°C 52°F / 11°C 72% 29.95 in
(1014 mb)
SSW 3.5 mph
(SSW 6 kph)
- 10SM
18:52
Overcast
61°F / 16°C 54°F / 12°C 77% 29.92 in
(1013 mb)
Variable 3.5 mph
(Variable 6 kph)
- 10SM
17:52
Overcast
61°F / 16°C 54°F / 12°C 77% 29.92 in
(1013 mb)
SSW 8.1 mph
(SSW 13 kph)
- 9SM
16:52
Mostly Cloudy
63°F / 17°C 54°F / 12°C 73% 29.92 in
(1013 mb)
W 6.9 mph
(W 11 kph)
- 8SM
16:35
Mostly Cloudy
64°F / 18°C 54°F / 12°C 68% 29.92 in
(1013 mb)
SSW 11.5 mph
(SSW 19 kph)
- 8SM
15:52
Partly Cloudy
64°F / 18°C 54°F / 12°C 68% 29.92 in
(1013 mb)
SSW 12.7 mph
(SSW 20 kph)
- 8SM
14:52
Partly Cloudy
64°F / 18°C 54°F / 12°C 68% 29.92 in
(1013 mb)
Calm - 8SM
13:52
Partly Cloudy
68°F / 20°C 54°F / 12°C 60% 29.95 in
(1014 mb)
SW 9.2 mph
(SW 15 kph)
- 8SM
12:52
Clear
68°F / 20°C 52°F / 11°C 56% 29.95 in
(1014 mb)
SSW 11.5 mph
(SSW 19 kph)
- 8SM
11:52
Clear
70°F / 21°C 52°F / 11°C 53% 29.95 in
(1014 mb)
SSE 8.1 mph
(SSE 13 kph)
- 8SM
10:52
Mostly Cloudy
66°F / 19°C 52°F / 11°C 60% 29.98 in
(1015 mb)
SSW 3.5 mph
(SSW 6 kph)
- 8SM
09:52
Overcast
63°F / 17°C 52°F / 11°C 68% 29.98 in
(1015 mb)
Calm - 8SM
08:52
Overcast
61°F / 16°C 52°F / 11°C 72% 30.01 in
(1016 mb)
SW 6.9 mph
(SW 11 kph)
- 8SM
07:52
Overcast
61°F / 16°C 52°F / 11°C 72% 29.98 in
(1015 mb)
S 4.6 mph
(S 7 kph)
- 8SM
06:52
Overcast
61°F / 16°C 52°F / 11°C 72% 29.98 in
(1015 mb)
SW 4.6 mph
(SW 7 kph)
- 8SM
06:14
Overcast
59°F / 15°C 54°F / 12°C 82% 29.98 in
(1015 mb)
SW 4.6 mph
(SW 7 kph)
- 7SM
05:52
Overcast
59°F / 15°C 54°F / 12°C 82% 29.98 in
(1015 mb)
Calm - 7SM
05:03
Overcast
59°F / 15°C 54°F / 12°C 82% 29.95 in
(1014 mb)
Calm - 8SM
04:52
Overcast
59°F / 15°C 54°F / 12°C 82% 29.95 in
(1014 mb)
SSW 4.6 mph
(SSW 7 kph)
- 8SM
04:45
Overcast
59°F / 15°C 54°F / 12°C 82% 29.95 in
(1014 mb)
SSW 4.6 mph
(SSW 7 kph)
- 8SM
03:52
Overcast
61°F / 16°C 54°F / 12°C 77% 29.95 in
(1014 mb)
Calm - 8SM
03:29
Overcast
61°F / 16°C 54°F / 12°C 77% 29.95 in
(1014 mb)
Calm - 8SM
02:52
Overcast
61°F / 16°C 54°F / 12°C 77% 29.95 in
(1014 mb)
Calm - 8SM
01:52
Overcast
59°F / 15°C 54°F / 12°C 82% 29.95 in
(1014 mb)
SSE 6.9 mph
(SSE 11 kph)
- 9SM
00:52
Overcast
59°F / 15°C 54°F / 12°C 82% 29.98 in
(1015 mb)
Calm - 9SM
Time Weather Temperature Dewpoint Humidity Pressure Winds Precip Visibility


Weather for websites

WeatherForYou.com, LLC is not responsible for any damages or problems caused by this service. Current weather conditions are obtained from the closest station including government and personal stations which may have varying degrees of accuracy. Weather forecasts are derived from the NOAA NDFD. Like all things, this site belongs to Jesus Christ... He just trusts me to maintain it. If you have any questions or comments email webmaster@weatherforyou.com

Copyright © 2014, WeatherForYou.com LLC. All rights reserved.